Simultaneous Nadir Overpasses (SNOs) Predictions

Prediction of SNOs between GOES-15 and METOP-A Satellite Orbit:

Table of predicted SNOs for the next 14.0 days since TLE Epoch: 7/17/2020
Index Date Time (GOES-15) GOES-15 Lat,Lon METOP-A Lat,Lon Distance(km) Time Diff (sec)
1 07/18/2020 17:06:19 0.02,-128.39 -0.35,-126.84 177.13 80
2 07/20/2020 05:25:19 -0.02,-128.39 -0.72,-131.46 350.55 80
3 07/21/2020 05:01:59 -0.02,-128.39 0.41,-126.48 216.87 80
4 07/22/2020 17:20:50 0.01,-128.39 0.59,-131.08 305.89 80
5 07/23/2020 17:02:51 -0.00,-128.39 -0.54,-126.10 261.43 80
6 07/25/2020 05:21:50 0.01,-128.39 -0.53,-130.72 266.79 80
7 07/26/2020 04:58:31 0.01,-128.38 0.60,-125.75 300.24 80
8 07/27/2020 17:17:22 -0.01,-128.38 0.40,-130.34 223.31 80
9 07/28/2020 16:59:22 -0.00,-128.37 -0.67,-125.35 343.88 80
10 07/30/2020 05:18:21 -0.02,-128.36 -0.39,-129.97 184.33 80
11 07/31/2020 04:55:01 -0.01,-128.35 0.74,-125.00 381.65 80
